DateTimeUTC,F1_A11,F1_S11,BsB_S11,BsG_S11,BsR_S11,BbsB_S11,BbsG_S11,BbsR_S11,BaB_A11,BaG_A11,BaR_A11,T_S11,U_S11,P_S11,T1_A11
2020-04-26T00:00:00Z,00000380,21000600,,,,,,,,,,25.3,00.4,0674.1,30.9
2020-04-26T00:01:00Z,00000380,21000600,,,,,,,,,,25.3,00.4,0674.1,31.0
2020-04-26T00:02:00Z,00000380,21000600,,,,,,,,,,25.3,00.4,0674.1,30.9
2020-04-26T00:03:00Z,00000380,61000600,,,,,,,,,,25.3,00.4,0674.1,30.9
2020-04-26T00:04:00Z,00000380,41000600,0002.02,0000.62,0001.74,0000.47,0000.27,0000.28,0000.27,0000.21,0000.11,25.1,00.4,0675.0,30.9
2020-04-26T00:05:00Z,00000380,01000600,0002.07,0002.34,0001.72,0000.27,0000.41,-000.30,0000.06,0000.22,0000.02,25.1,00.5,0675.1,30.9
2020-04-26T00:06:00Z,00000380,01000600,0002.57,0002.04,0001.20,0001.20,0000.36,0000.42,0000.08,0000.03,0000.20,25.1,00.5,0675.1,30.9
2020-04-26T00:07:00Z,00000380,01000600,0002.92,0001.86,0000.91,0000.44,0000.46,0000.05,0000.11,0000.29,0000.09,25.1,00.5,0675.1,30.9
2020-04-26T00:08:00Z,00000380,01000600,0002.19,0001.44,0001.39,0000.03,0000.23,0000.12,0000.01,-000.22,-000.10,25.0,00.5,0675.1,30.9
2020-04-26T00:09:00Z,00000380,01000600,0002.43,0001.14,0001.23,0001.07,0000.32,0000.01,0000.35,0000.24,0000.10,25.0,00.5,0675.1,30.9
2020-04-26T00:10:00Z,00000380,01000600,0003.49,0001.88,0001.40,0000.20,0000.13,0000.08,-000.18,0000.00,0000.09,25.0,00.4,0675.1,30.9
2020-04-26T00:11:00Z,00000380,01000600,0003.45,0001.83,0000.76,0000.48,0000.55,0000.08,0000.38,0000.04,0000.03,25.0,00.5,0675.0,30.9
2020-04-26T00:12:00Z,00000380,01000600,0002.23,0001.23,0000.95,0000.96,0000.46,0000.19,0000.19,0000.37,0000.40,25.0,00.5,0675.1,30.9
2020-04-26T00:13:00Z,00000380,01000600,0002.19,0002.11,0001.61,0000.17,0000.45,-000.11,0000.02,0000.09,-000.08,25.0,00.5,0675.1,30.9
2020-04-26T00:14:00Z,00000380,01000600,0002.82,0001.52,0001.07,0000.75,-000.07,0000.18,0000.21,0000.13,0000.17,25.0,00.5,0675.0,30.9
2020-04-26T00:15:00Z,00000380,01000600,0002.15,0001.35,0001.44,0000.29,0000.40,0000.18,0000.20,0000.13,0000.09,25.0,00.5,0675.0,30.9
2020-04-26T00:16:00Z,00000380,01000600,0002.37,0001.80,0001.45,0001.41,0000.59,0000.11,-000.01,0000.22,0000.12,25.0,00.5,0675.0,30.9
2020-04-26T00:17:00Z,00000380,01000600,0003.43,0001.85,0000.77,0000.68,0000.35,0000.18,0000.17,0000.10,0000.07,25.0,00.5,0675.0,30.9
2020-04-26T00:18:00Z,00000380,01000600,0002.28,0001.85,0001.16,-000.21,0000.18,0000.13,0000.12,0000.06,0000.01,25.0,00.5,0675.1,31.0
2020-04-26T00:19:00Z,00000380,01000600,0003.11,0001.53,0000.65,0000.04,0000.46,-000.18,0000.13,0000.12,0000.16,25.0,00.5,0675.1,31.0
2020-04-26T00:20:00Z,00000380,01000600,0003.03,0001.45,0001.51,0000.94,0000.52,0000.23,0000.05,-000.01,-000.05,25.0,00.4,0675.1,31.0
2020-04-26T00:21:00Z,00000380,01000600,0003.07,0001.97,0000.92,0000.23,0000.59,0000.12,0000.14,0000.13,0000.06,25.0,00.4,0675.1,30.9
2020-04-26T00:22:00Z,00000380,01000600,0002.09,0001.70,0001.32,0000.14,0000.69,0000.01,0000.07,0000.12,0000.21,25.0,00.4,0675.1,31.0
2020-04-26T00:23:00Z,00000380,01000600,0001.03,0002.00,0001.04,0000.23,0000.54,0000.01,0000.33,0000.11,-000.01,25.0,00.4,0675.0,31.0
2020-04-26T00:24:00Z,00000380,01000600,0002.32,0001.63,0001.07,0000.31,0000.27,0000.09,0000.13,0000.16,0000.19,25.0,00.4,0675.1,31.0
2020-04-26T00:25:00Z,00000380,01000600,0003.61,0001.21,0001.07,-000.08,0000.12,0000.23,0000.11,0000.27,0000.02,25.0,00.4,0675.0,31.0
2020-04-26T00:26:00Z,00000380,01000600,0002.98,0001.45,0001.65,0001.15,0000.56,-000.13,0000.24,0000.19,0000.13,25.0,00.4,0675.0,31.0
2020-04-26T00:27:00Z,00000380,01000600,0002.25,0001.45,0001.33,0000.15,0000.38,0000.27,0000.03,0000.11,0000.03,25.0,00.5,0675.0,30.9
2020-04-26T00:28:00Z,00000380,01000600,0002.18,0001.42,0001.63,0000.91,0000.61,0000.25,0000.18,0000.06,0000.17,25.0,00.4,0675.0,30.9
2020-04-26T00:29:00Z,00000380,01000600,0002.60,0001.74,0001.15,0000.97,0000.34,0000.41,0000.21,0000.09,0000.10,25.0,00.4,0675.0,31.0
2020-04-26T00:30:00Z,00000380,01000600,0001.87,0001.90,0000.97,0000.75,0000.43,-000.16,0000.14,0000.26,0000.17,25.0,00.5,0675.0,31.0
2020-04-26T00:31:00Z,00000380,01000600,0003.50,0001.63,0001.93,0000.53,0000.01,0000.52,0000.01,0000.13,0000.02,25.0,00.4,0675.0,31.0
2020-04-26T00:32:00Z,00000380,01000600,0003.14,0002.22,0000.82,0000.63,0000.43,0000.17,0000.42,0000.23,0000.19,25.0,00.4,0675.0,31.0
2020-04-26T00:33:00Z,00000380,01000600,0002.05,0001.18,0001.16,0000.52,0000.36,0000.21,0000.12,0000.26,0000.07,25.0,00.6,0675.0,30.9
2020-04-26T00:34:00Z,00000380,01000600,0003.45,0001.68,0001.55,-000.25,0000.49,0000.36,0000.08,0000.03,0000.24,25.0,00.6,0675.0,31.0
2020-04-26T00:35:00Z,00000380,01000600,0002.86,0001.78,0001.19,0000.08,0000.51,0000.30,-000.09,-000.06,-000.18,25.0,00.5,0675.0,31.0
2020-04-26T00:36:00Z,00000380,01000600,0002.69,0002.12,0001.07,0000.61,0000.21,-000.17,0000.14,-000.15,0000.05,25.0,00.4,0675.0,31.0
2020-04-26T00:37:00Z,00000380,01000600,0001.50,0001.77,0001.41,0000.11,0000.17,0000.26,0000.21,0000.34,0000.26,25.0,00.5,0675.0,31.0
2020-04-26T00:38:00Z,00000380,01000600,0003.38,0001.82,0001.36,0000.77,0000.45,0000.36,0000.07,0000.16,0000.07,25.0,00.5,0675.0,31.0
2020-04-26T00:39:00Z,00000380,01000600,0002.91,0001.92,0001.27,0001.01,0000.54,0000.21,0000.22,0000.20,0000.11,25.0,00.4,0674.9,31.0
2020-04-26T00:40:00Z,00000380,01000600,0001.29,0002.43,0001.17,0000.75,0000.45,0000.30,0000.26,0000.04,0000.13,25.0,00.5,0674.9,31.0
2020-04-26T00:41:00Z,00000380,01000600,0003.43,0001.74,0000.81,-000.30,0000.32,-000.00,0000.01,0000.07,0000.04,25.0,00.5,0674.9,31.0
2020-04-26T00:42:00Z,00000380,01000600,0002.41,0001.99,0000.98,0000.51,0000.32,0000.14,0000.21,0000.18,0000.10,25.0,00.4,0674.9,31.0
2020-04-26T00:43:00Z,00000380,01000600,0002.80,0001.65,0001.02,0000.49,0000.50,0000.15,0000.09,0000.22,0000.17,25.0,00.5,0674.9,31.0
2020-04-26T00:44:00Z,00000380,01000600,0003.34,0001.17,0001.77,-000.05,0000.37,0000.47,0000.16,0000.04,0000.14,25.0,00.5,0674.9,31.0
2020-04-26T00:45:00Z,00000380,01000600,0002.06,0001.93,0000.79,0000.05,0000.08,0000.15,0000.03,0000.15,0000.07,25.0,00.5,0674.9,31.0
2020-04-26T00:46:00Z,00000380,01000600,0003.13,0002.05,0001.06,0000.63,0000.65,0000.28,0000.16,0000.07,0000.01,25.0,00.5,0674.9,31.0
2020-04-26T00:47:00Z,00000380,01000600,0003.11,0001.44,0001.33,0000.10,0000.75,0000.62,0000.08,0000.16,0000.03,25.0,00.5,0674.9,31.0
2020-04-26T00:48:00Z,00000380,01000600,0002.32,0001.85,0000.80,-000.30,0000.24,0000.05,0000.40,0000.09,0000.12,25.0,00.5,0674.9,31.0
2020-04-26T00:49:00Z,00000380,01000600,0001.99,0001.37,0001.08,0000.12,0000.51,-000.15,0000.14,0000.21,0000.15,25.0,00.5,0674.9,30.9
2020-04-26T00:50:00Z,00000380,01000600,0003.38,0001.40,0001.36,0001.06,0000.61,-000.27,0000.28,0000.33,0000.34,25.0,00.6,0674.9,31.0
2020-04-26T00:51:00Z,00000380,01000600,0002.24,0001.54,0001.18,0000.83,0000.30,0000.22,0000.10,0000.16,0000.11,25.0,00.6,0674.8,31.0
2020-04-26T00:52:00Z,00000380,01000600,0002.80,0001.68,0000.98,0001.07,0000.32,0000.35,0000.10,-000.03,0000.00,25.0,00.6,0674.8,31.0
2020-04-26T00:53:00Z,00000380,01000600,0004.05,0001.72,0001.45,0000.36,0000.09,-000.07,-000.01,0000.13,-000.11,25.0,00.5,0674.8,31.0
2020-04-26T00:54:00Z,00000380,01000600,0003.12,0001.49,0001.27,0000.02,0000.69,0000.16,0000.14,-000.01,0000.12,25.0,00.4,0674.8,31.0
2020-04-26T00:55:00Z,00000380,01000600,0002.36,0001.81,0001.60,0000.51,0000.17,0000.04,0000.06,0000.16,0000.16,25.0,00.5,0674.8,31.0
2020-04-26T00:56:00Z,00000380,01000600,0002.26,0002.03,0001.77,0000.31,0000.00,0000.33,0000.16,0000.23,0000.03,25.0,00.4,0674.8,30.9
2020-04-26T00:57:00Z,00000380,41000600,,,,,,,,,,25.1,00.4,0674.8,30.9
2020-04-26T00:58:00Z,00000380,61000600,,,,,,,,,,25.1,00.4,0673.7,31.0
2020-04-26T00:59:00Z,00000380,21000600,,,,,,,,,,25.2,00.4,0673.7,31.0
2020-04-26T01:00:00Z,00000380,21000600,,,,,,,,,,25.2,00.4,0673.7,31.0
2020-04-26T01:01:00Z,00000380,21000600,,,,,,,,,,25.2,00.4,0673.7,31.0
2020-04-26T01:02:00Z,00000380,21000600,,,,,,,,,,25.2,00.4,0673.7,30.9
2020-04-26T01:03:00Z,00000380,61000600,,,,,,,,,,25.3,00.4,0673.7,30.9
2020-04-26T01:04:00Z,00000380,41000600,0002.30,0001.32,0000.49,0000.18,0000.34,0000.36,0000.24,0000.17,0000.11,25.1,00.3,0674.6,30.9
2020-04-26T01:05:00Z,00000380,01010600,0001.54,0001.65,0001.02,0000.05,0000.42,0000.43,0000.04,0000.09,0000.03,25.0,00.4,0674.7,30.9
2020-04-26T01:06:00Z,00000380,01000600,0001.69,0001.26,0000.93,-000.24,-000.02,0000.51,0000.12,0000.22,0000.27,25.0,00.5,0674.7,31.0
2020-04-26T01:07:00Z,00000380,01000600,0001.55,0001.90,0001.38,0000.79,0000.50,0000.55,0000.07,0000.06,-000.01,25.0,00.4,0674.7,30.9
2020-04-26T01:08:00Z,00000380,01000600,0003.25,0001.02,0000.68,0000.22,0000.79,-000.17,0000.24,0000.18,0000.19,25.0,00.5,0674.7,30.9
2020-04-26T01:09:00Z,00000380,01000600,0002.40,0001.37,0000.96,0000.44,0000.24,0000.11,-000.10,0000.03,0000.05,25.0,00.4,0674.7,30.9
2020-04-26T01:10:00Z,00000380,01000600,0001.92,0001.16,0000.94,0000.17,0000.30,0000.21,0000.15,0000.13,-000.07,25.0,00.5,0674.7,30.9
2020-04-26T01:11:00Z,00000380,01000600,0002.68,0000.62,0001.11,0000.33,-000.22,-000.00,0000.26,0000.03,0000.10,24.9,00.4,0674.7,30.9
2020-04-26T01:12:00Z,00000380,01000600,0002.05,0001.01,0000.74,0000.70,0000.39,0000.71,0000.28,0000.33,0000.36,24.9,00.4,0674.7,31.0
2020-04-26T01:13:00Z,00000380,01000600,0002.65,0001.27,0001.15,0001.13,0000.35,0000.49,0000.16,0000.20,0000.02,24.9,00.5,0674.7,30.9
2020-04-26T01:14:00Z,00000380,01000600,0001.86,0001.59,0001.12,0000.63,0000.75,0000.27,0000.04,0000.26,0000.13,24.9,00.6,0674.7,30.9
2020-04-26T01:15:00Z,00000380,01000600,0002.90,0001.51,0000.89,0000.39,0000.38,0000.28,0000.22,0000.12,0000.11,24.9,00.5,0674.6,30.9
2020-04-26T01:16:00Z,00000380,01000600,0002.77,0002.07,0000.66,0000.27,0000.41,0000.10,-000.02,-000.02,-000.00,24.9,00.4,0674.6,30.9
2020-04-26T01:17:00Z,00000380,01000600,0003.01,0001.74,0000.78,0000.62,0000.53,0000.36,0000.20,0000.17,0000.17,24.9,00.4,0674.6,30.9
2020-04-26T01:18:00Z,00000380,01000600,0001.51,0001.52,0001.12,0000.40,0000.34,0000.50,0000.26,-000.06,0000.09,24.9,00.5,0674.6,30.9
2020-04-26T01:19:00Z,00000380,01000600,0002.69,0001.16,0000.85,0000.30,0000.44,0000.26,0000.10,0000.28,0000.30,24.9,00.5,0674.6,30.9
2020-04-26T01:20:00Z,00000380,01000600,0003.60,0001.52,0000.50,-000.40,0000.37,0000.34,0000.15,0000.16,-000.01,24.9,00.6,0674.6,30.9
2020-04-26T01:21:00Z,00000380,01000600,0001.37,0001.77,0000.47,0000.53,0000.51,0000.15,0000.21,0000.20,0000.15,24.9,00.6,0674.6,30.9
2020-04-26T01:22:00Z,00000380,01000600,0002.22,0001.15,0001.06,0000.68,0000.41,0000.62,0000.08,0000.00,-000.12,24.9,00.6,0674.6,30.9
2020-04-26T01:23:00Z,00000380,01000600,0001.25,0001.57,0000.89,0000.58,0000.26,0000.56,0000.08,0000.10,0000.14,24.9,00.5,0674.6,30.9
2020-04-26T01:24:00Z,00000380,01000600,0000.56,0001.04,0000.27,0000.61,0000.26,0000.45,0000.02,0000.12,-000.05,24.9,00.5,0674.6,30.9
2020-04-26T01:25:00Z,00000380,01000600,0001.41,0001.56,0000.76,0001.19,0000.32,0000.78,0000.22,0000.09,0000.21,24.9,00.5,0674.6,30.9
2020-04-26T01:26:00Z,00000380,01000600,0002.32,0001.73,0000.81,0000.94,0000.36,0000.19,0000.10,0000.24,0000.09,24.9,00.5,0674.5,30.9
2020-04-26T01:27:00Z,00000380,01000600,0001.03,0001.75,0000.65,-000.13,0000.27,0000.22,0000.19,0000.21,0000.19,24.9,00.5,0674.5,30.9
2020-04-26T01:28:00Z,00000380,01000600,0002.53,0001.28,0000.98,-000.91,0000.42,0000.39,0000.31,0000.09,0000.14,24.9,00.5,0674.5,30.9
2020-04-26T01:29:00Z,00000380,01000600,0001.97,0001.56,0000.68,0000.89,0000.22,0000.35,0000.03,0000.01,0000.07,24.8,00.6,0674.5,30.9
2020-04-26T01:30:00Z,00000380,01000600,0003.25,0001.90,0000.85,0000.19,-000.13,0000.52,0000.25,0000.22,0000.10,24.9,00.5,0674.5,30.9
2020-04-26T01:31:00Z,00000380,01000600,0003.34,0001.38,0001.02,0001.04,0000.48,0000.24,0000.16,0000.22,0000.11,24.8,00.6,0674.5,30.9
2020-04-26T01:32:00Z,00000380,01000600,0003.09,0002.00,0000.40,0000.99,0000.71,0000.69,0000.22,0000.13,0000.16,24.8,00.6,0674.5,30.9
2020-04-26T01:33:00Z,00000380,01000600,0002.50,0001.79,0000.58,0000.05,0000.59,0000.15,-000.01,0000.09,0000.07,24.8,00.5,0674.5,30.9
2020-04-26T01:34:00Z,00000380,01000600,0002.00,0001.43,0000.51,0000.69,0000.38,0000.18,0000.13,0000.08,0000.06,24.8,00.5,0674.5,30.9
2020-04-26T01:35:00Z,00000380,01000600,0002.44,0002.03,0001.21,0000.94,0000.35,0000.70,0000.15,0000.12,0000.07,24.8,00.5,0674.5,30.9
2020-04-26T01:36:00Z,00000380,01000600,0002.72,0001.06,0001.19,0000.28,0000.19,0000.21,0000.13,0000.28,0000.26,24.8,00.5,0674.5,30.9
2020-04-26T01:37:00Z,00000380,01000600,0003.05,0001.50,0000.95,0000.96,0000.19,0000.60,0000.21,0000.02,0000.08,24.8,00.5,0674.5,30.9
2020-04-26T01:38:00Z,00000380,01000600,0002.68,0001.53,0000.71,-000.07,0000.26,0000.54,0000.25,0000.09,0000.13,24.8,00.6,0674.5,31.0
2020-04-26T01:39:00Z,00000380,01000600,0001.88,0001.73,0000.87,0000.10,0000.43,0000.36,-000.06,0000.05,-000.16,24.9,00.5,0674.5,31.0
2020-04-26T01:40:00Z,00000380,01000600,0002.46,0001.54,0000.62,-000.43,0000.31,0000.37,0000.09,0000.22,0000.21,24.8,00.5,0674.5,31.0
2020-04-26T01:41:00Z,00000380,01000600,0001.73,0001.67,0000.96,0000.90,0000.17,0000.40,0000.22,0000.15,0000.26,24.8,00.5,0674.5,30.9
2020-04-26T01:42:00Z,00000380,01000600,0001.35,0001.68,0000.56,0000.39,0000.45,0000.18,0000.08,0000.03,-000.04,24.9,00.5,0674.4,30.9
2020-04-26T01:43:00Z,00000380,01000600,0002.04,0001.72,0001.07,-000.09,0000.29,0000.66,0000.18,0000.14,0000.07,24.8,00.5,0674.4,30.9
2020-04-26T01:44:00Z,00000380,01000600,0002.02,0000.87,0000.81,0000.09,0000.10,0000.63,0000.23,0000.30,0000.13,24.8,00.6,0674.4,31.0
2020-04-26T01:45:00Z,00000380,01000600,0002.87,0001.71,0001.33,0001.03,0000.14,0000.39,0000.03,-000.10,0000.00,24.8,00.5,0674.4,31.0
2020-04-26T01:46:00Z,00000380,01000600,0003.08,0002.33,0000.76,0000.31,-000.15,0000.45,0000.09,0000.17,0000.15,24.8,00.5,0674.4,30.9
2020-04-26T01:47:00Z,00000380,01000600,0002.45,0001.59,0000.94,0000.39,0000.40,0000.16,0000.18,0000.11,0000.04,24.8,00.6,0674.4,30.9
2020-04-26T01:48:00Z,00000380,01000600,0002.24,0001.62,0000.45,0000.64,0000.63,-000.04,0000.12,0000.17,0000.11,24.8,00.5,0674.4,31.0
2020-04-26T01:49:00Z,00000380,01000600,0004.07,0001.93,0000.54,-000.09,0000.23,-000.04,0000.24,0000.02,0000.06,24.8,00.5,0674.4,30.9
2020-04-26T01:50:00Z,00000380,01000600,0002.53,0001.38,0000.46,-000.11,0000.43,0000.16,0000.18,0000.35,0000.13,24.8,00.5,0674.4,30.9
2020-04-26T01:51:00Z,00000380,01000600,0001.90,0001.32,0000.95,-000.04,0000.31,0000.55,0000.16,0000.29,0000.20,24.8,00.5,0674.4,30.9
2020-04-26T01:52:00Z,00000380,01000600,0002.53,0001.23,0000.62,0000.70,0000.08,0000.51,0000.04,-000.19,0000.08,24.8,00.5,0674.4,30.9
2020-04-26T01:53:00Z,00000380,01000600,0002.18,0001.15,0000.71,0000.49,-000.01,0000.52,-000.01,0000.20,0000.07,24.8,00.6,0674.4,30.9
2020-04-26T01:54:00Z,00000380,01000600,0001.54,0001.94,0000.81,0000.06,0000.39,0000.54,0000.18,0000.11,0000.18,24.8,00.5,0674.4,30.9
2020-04-26T01:55:00Z,00000380,01000600,0003.19,0001.62,0001.28,0000.98,0000.38,0000.71,0000.13,0000.08,0000.02,24.8,00.5,0674.4,30.9
2020-04-26T01:56:00Z,00000380,01000600,0003.31,0001.46,0001.37,0000.25,-000.10,0000.46,0000.04,0000.08,0000.08,24.8,00.5,0674.4,30.9
2020-04-26T01:57:00Z,00000380,41000600,,,,,,,,,,24.8,00.4,0674.3,30.9
2020-04-26T01:58:00Z,00000380,61000600,,,,,,,,,,24.9,00.4,0673.3,30.9
2020-04-26T01:59:00Z,00000380,21000600,,,,,,,,,,25.0,00.4,0673.3,30.9
2020-04-26T02:00:00Z,00000380,21000600,,,,,,,,,,25.0,00.4,0673.3,30.9
2020-04-26T02:01:00Z,00000380,21000600,,,,,,,,,,25.0,00.4,0673.3,30.9
2020-04-26T02:02:00Z,00000380,21000600,,,,,,,,,,25.0,00.4,0673.3,30.9
2020-04-26T02:03:00Z,00000380,61000600,,,,,,,,,,25.0,00.4,0673.3,30.9
2020-04-26T02:04:00Z,00000380,41000600,0002.26,0001.33,0000.63,-000.65,0000.02,-000.03,0000.16,0000.04,0000.09,24.8,00.5,0674.2,30.9
2020-04-26T02:05:00Z,00000380,01000600,0003.30,0002.13,0001.29,0000.82,0000.53,-000.27,0000.14,0000.08,0000.04,24.8,00.4,0674.3,30.9
2020-04-26T02:06:00Z,00000380,01000600,0003.01,0001.93,0001.50,0000.52,0000.56,0000.21,0000.05,0000.12,-000.00,24.8,00.4,0674.3,30.9
2020-04-26T02:07:00Z,00000380,01000600,0003.08,0001.64,0001.78,0000.28,0000.47,-000.38,0000.14,-000.00,0000.09,24.7,00.4,0674.3,30.9
2020-04-26T02:08:00Z,00000380,01000600,0003.06,0001.68,0001.01,0000.59,0000.39,0000.30,0000.02,0000.26,0000.15,24.8,00.4,0674.3,30.9
2020-04-26T02:09:00Z,00000380,01000600,0002.74,0001.60,0001.05,-000.40,0000.76,0000.01,0000.37,0000.18,0000.13,24.7,00.4,0674.3,30.9
2020-04-26T02:10:00Z,00000380,01000600,0001.62,0001.52,0000.61,-000.05,0000.59,-000.05,0000.13,0000.17,0000.13,24.7,00.6,0674.3,30.9
2020-04-26T02:11:00Z,00000380,01000600,0003.39,0001.96,0001.32,-000.15,0000.51,-000.28,0000.01,0000.04,-000.00,24.7,00.5,0674.3,30.9
2020-04-26T02:12:00Z,00000380,01000600,0002.61,0001.35,0001.15,0000.93,0000.23,0000.18,0000.16,0000.12,0000.16,24.7,00.5,0674.3,30.9
2020-04-26T02:13:00Z,00000380,01000600,0003.33,0001.24,0001.70,0001.04,0000.38,0000.03,0000.21,0000.24,0000.20,24.7,00.5,0674.2,30.9
2020-04-26T02:14:00Z,00000380,01000600,0002.59,0001.55,0001.47,-000.33,0000.29,0000.27,0000.16,0000.04,0000.03,24.7,00.5,0674.2,30.9
2020-04-26T02:15:00Z,00000380,01000600,0002.08,0001.38,0001.19,-000.83,0000.63,0000.10,0000.05,0000.08,0000.06,24.7,00.5,0674.2,30.9
2020-04-26T02:16:00Z,00000380,01000600,0002.33,0001.75,0000.84,0000.30,0000.03,-000.28,0000.08,0000.20,0000.00,24.7,00.5,0674.2,30.9
2020-04-26T02:17:00Z,00000380,01000600,0002.51,0001.20,0001.19,0000.75,0000.29,-000.10,0000.15,0000.04,0000.15,24.7,00.6,0674.2,30.9
2020-04-26T02:18:00Z,00000380,01000600,0001.72,0001.70,0001.20,0000.45,0000.56,-000.02,0000.17,0000.18,0000.16,24.7,00.5,0674.2,30.9
2020-04-26T02:19:00Z,00000380,01000600,0002.59,0001.56,0000.83,0000.27,0000.14,0000.22,0000.19,0000.08,0000.04,24.7,00.6,0674.2,30.9
2020-04-26T02:20:00Z,00000380,01000600,0003.35,0001.26,0001.40,0000.68,-000.20,0000.47,0000.13,0000.23,0000.16,24.7,00.5,0674.1,30.9
2020-04-26T02:21:00Z,00000380,01000600,0002.31,0002.02,0001.19,0000.13,0000.41,-000.09,0000.19,0000.06,0000.04,24.7,00.4,0674.1,30.9
2020-04-26T02:22:00Z,00000380,01000600,0002.03,0002.22,0001.94,0000.13,0000.41,0000.55,0000.12,0000.22,0000.19,24.7,00.5,0674.1,30.9
2020-04-26T02:23:00Z,00000380,01000600,0001.35,0001.12,0001.52,-000.23,0000.43,0000.40,-000.02,0000.09,0000.16,24.7,00.6,0674.1,30.9
2020-04-26T02:24:00Z,00000380,01000600,0003.03,0001.89,0000.88,0000.91,0000.52,0000.26,0000.16,0000.07,-000.16,24.7,00.6,0674.1,30.9
2020-04-26T02:25:00Z,00000380,01000600,0002.77,0001.35,0001.04,-000.73,0000.61,-000.06,0000.32,0000.12,0000.16,24.7,00.5,0674.1,30.9
2020-04-26T02:26:00Z,00000380,01000600,0002.47,0001.34,0000.65,-000.73,0000.40,0000.19,0000.01,0000.20,0000.07,24.7,00.5,0674.1,30.9
2020-04-26T02:27:00Z,00000380,01000600,0002.15,0001.33,0001.22,0000.23,0000.35,0000.01,0000.07,-000.03,-000.03,24.7,00.5,0674.1,30.9
2020-04-26T02:28:00Z,00000380,01000600,0001.75,0001.48,0000.82,0001.21,0000.53,0000.08,0000.08,0000.17,0000.25,24.7,00.5,0674.1,30.9
2020-04-26T02:29:00Z,00000380,01000600,0002.17,0002.02,0001.70,0000.16,0000.54,0000.43,0000.28,0000.25,0000.09,24.7,00.5,0674.0,30.9
2020-04-26T02:30:00Z,00000380,01000600,0002.71,0001.21,0001.02,0000.16,0000.27,0000.06,0000.19,0000.16,0000.22,24.7,00.5,0674.0,30.9
2020-04-26T02:31:00Z,00000380,01000600,0001.33,0000.91,0001.62,0000.74,0000.51,0000.28,0000.29,0000.19,0000.12,24.7,00.5,0674.0,30.9
2020-04-26T02:32:00Z,00000380,01000600,0002.92,0001.34,0001.47,0000.24,0000.62,0000.04,-000.00,0000.08,-000.09,24.7,00.6,0674.1,30.9
2020-04-26T02:33:00Z,00000380,01000600,0002.31,0001.60,0001.50,0001.24,0000.81,0000.28,0000.08,-000.01,0000.03,24.7,00.5,0674.0,30.9
2020-04-26T02:34:00Z,00000380,01000600,0001.85,0001.76,0001.13,0000.20,0000.32,0000.22,0000.20,0000.10,0000.23,24.7,00.5,0674.0,30.9
2020-04-26T02:35:00Z,00000380,01000600,0002.33,0001.72,0001.11,-000.48,0000.11,-000.27,0000.09,0000.18,-000.03,24.7,00.5,0674.0,30.9
2020-04-26T02:36:00Z,00000380,01000600,0002.51,0001.43,0001.36,0000.28,0000.78,-000.07,0000.11,0000.12,0000.16,24.7,00.5,0674.0,30.9
2020-04-26T02:37:00Z,00000380,01000600,0001.81,0002.09,0001.18,-000.07,0000.77,0000.27,0000.16,0000.04,-000.05,24.7,00.5,0674.0,30.9
2020-04-26T02:38:00Z,00000380,01000600,0003.00,0001.40,0001.33,0000.19,0000.72,-000.22,-000.06,0000.10,0000.13,24.7,00.5,0674.0,30.9
2020-04-26T02:39:00Z,00000380,01000600,0002.07,0001.35,0001.48,0000.12,0000.24,0000.52,0000.14,0000.14,0000.13,24.7,00.4,0674.0,30.9
2020-04-26T02:40:00Z,00000380,01000600,0003.22,0001.71,0000.92,-000.51,0000.03,0000.12,0000.20,0000.21,0000.15,24.7,00.5,0674.0,30.9
2020-04-26T02:41:00Z,00000380,01000600,0003.26,0001.75,0001.21,0000.32,0000.31,0000.49,0000.16,0000.08,0000.01,24.7,00.5,0674.0,30.9
2020-04-26T02:42:00Z,00000380,01000600,0002.55,0002.06,0001.28,0000.56,0000.26,-000.19,0000.14,0000.15,0000.23,24.7,00.5,0673.9,30.9
2020-04-26T02:43:00Z,00000380,01000600,0002.77,0001.74,0001.22,0000.24,0000.95,0000.53,0000.13,0000.05,-000.15,24.7,00.5,0674.0,30.9
2020-04-26T02:44:00Z,00000380,01000600,0002.45,0002.17,0001.24,-000.23,0000.46,-000.17,0000.06,-000.03,0000.14,24.7,00.4,0673.9,30.9
2020-04-26T02:45:00Z,00000380,01000600,0001.80,0001.29,0001.23,0000.39,0000.43,0000.06,0000.09,0000.21,0000.09,24.7,00.4,0673.9,30.9
2020-04-26T02:46:00Z,00000380,01000600,0002.10,0002.35,0000.67,0000.17,0000.56,0000.28,0000.16,0000.19,0000.11,24.7,00.5,0673.9,30.9
2020-04-26T02:47:00Z,00000380,01000600,0002.39,0001.90,0000.65,0000.60,0000.88,-000.53,0000.13,0000.04,0000.04,24.7,00.4,0673.9,30.9
2020-04-26T02:48:00Z,00000380,01000600,0001.12,0001.26,0000.86,0000.64,0000.52,-000.12,0000.11,0000.04,0000.03,24.7,00.4,0673.9,30.9
2020-04-26T02:49:00Z,00000380,01000600,0002.72,0001.26,0000.71,0000.66,0000.37,-000.11,0000.18,0000.29,-000.04,24.7,00.4,0673.9,30.9
2020-04-26T02:50:00Z,00000380,01000600,0002.68,0001.43,0000.91,0000.15,0000.11,-000.17,0000.10,-000.03,0000.20,24.7,00.5,0673.9,30.9
2020-04-26T02:51:00Z,00000380,01000600,0002.91,0001.33,0001.54,0001.06,0000.52,0000.35,0000.18,0000.21,0000.21,24.7,00.4,0673.9,30.9
2020-04-26T02:52:00Z,00000380,01000600,0002.51,0001.72,0001.15,0000.85,0000.27,-000.12,0000.22,0000.25,0000.14,24.7,00.5,0673.9,30.9
2020-04-26T02:53:00Z,00000380,01000600,0002.33,0001.23,0001.18,0000.27,0000.51,0000.04,0000.15,0000.02,-000.05,24.7,00.5,0673.9,30.9
2020-04-26T02:54:00Z,00000380,01000600,0001.48,0002.18,0000.93,0000.18,0000.68,-000.11,0000.21,0000.16,0000.30,24.7,00.5,0673.9,30.9
2020-04-26T02:55:00Z,00000380,01000600,0001.33,0001.01,0000.67,0000.53,0000.25,-000.08,0000.23,0000.21,-000.03,24.7,00.5,0673.9,30.9
2020-04-26T02:56:00Z,00000380,01000600,0002.89,0000.74,0000.86,0000.14,0000.80,0000.29,0000.06,0000.24,0000.21,24.7,00.5,0673.9,30.9
2020-04-26T02:57:00Z,00000380,41000600,,,,,,,,,,24.7,00.8,0673.9,30.9
2020-04-26T02:58:00Z,00000380,61000600,,,,,,,,,,24.8,00.4,0672.8,30.9
2020-04-26T02:59:00Z,00000380,21000600,,,,,,,,,,24.9,00.4,0672.8,30.9
2020-04-26T03:00:00Z,00000380,21000600,,,,,,,,,,24.9,00.4,0672.8,30.9
2020-04-26T03:01:00Z,00000380,21000600,,,,,,,,,,24.9,00.4,0672.8,30.9
2020-04-26T03:02:00Z,00000380,21000600,,,,,,,,,,24.9,00.4,0672.8,30.9
2020-04-26T03:03:00Z,00000380,61000600,,,,,,,,,,24.9,00.4,0672.8,30.9
2020-04-26T03:04:00Z,00000380,41000600,0002.99,0002.04,0001.50,0000.19,-000.04,0000.65,0000.22,0000.31,0000.22,24.7,00.4,0673.7,30.9
2020-04-26T03:05:00Z,00000380,01000600,0001.31,0001.38,0001.31,0000.44,0000.17,0000.34,0000.06,-000.03,0000.00,24.7,00.4,0673.8,30.9
2020-04-26T03:06:00Z,00000380,01000600,0002.16,0001.42,0001.38,-000.11,0000.06,0000.41,0000.29,0000.32,0000.18,24.7,00.4,0673.8,30.9
2020-04-26T03:07:00Z,00000380,01000600,0002.38,0002.06,0001.03,0000.85,-000.12,-000.06,-000.06,0000.14,-000.01,24.7,00.4,0673.8,30.9
2020-04-26T03:08:00Z,00000380,01000600,0002.64,0001.50,0000.93,0000.22,0000.20,0000.02,0000.21,0000.12,0000.09,24.7,00.4,0673.8,30.9
2020-04-26T03:09:00Z,00000380,01000600,0002.83,0001.38,0001.06,0000.29,-000.09,-000.22,0000.09,0000.09,0000.13,24.6,00.4,0673.8,30.9
2020-04-26T03:10:00Z,00000380,01000600,0003.60,0001.92,0001.01,0000.34,0000.01,0000.35,0000.22,0000.10,0000.10,24.7,00.4,0673.8,30.9